Tracking 20624 objects as of 28-Mar-2020
HD Live streaming from Space Station
objects crossing your sky now

SL-6 R/B(2)


SL-6 R/B(2) is no longer on orbit


NORAD ID: 8462
Int'l Code: 1975-105D
Perigee: N/A
Apogee: N/A
Inclination: N/A
Period: N/A
Semi major axis: N/A
RCS: N/A
Launch date: November 14, 1975
Source: Commonwealth of Independent States (former USSR) (CIS)
Launch site: PLESETSK MISSILE AND SPACE COMPLEX (PKMTR)
Decay date: 2019-02-05

Note: This is a ROCKET BODY
aabbcc
Your satellite tracking list
Your tracking list is empty




NASA's NSSDC Master Catalog

Two Line Element Set (TLE):
1  8462U 75105D   19036.54012782  .84670195  10428-4  50002-3 0  9995
2  8462  61.3941  25.8967 0471960 287.2251 231.6238 15.55005142314345
Source of the keplerian elements: AFSPC